Location: Cieszkowy
(50.3290°N, 20.5336°E)
Time: 00:38:19
(UTC+00:00)

Cosmos 1607 - Pass Details

Date: 15 June 2024
Orbit: 910 x 991 km, 65.0° (Epoch: 18 July)

Event Time Altitude Azimuth Distance (km) Brightness Sun altitude
Rises 01:05:46 0° 319° (NW) 3,707 7.2 -9.5°
Reaches altitude 10° 01:08:22 10° 319° (NW) 2,749 6.6 -9.2°
Maximum altitude 01:14:51 89° 232° (SW) 980 4.0 -8.6°
Drops below altitude 10° 01:21:10 10° 143° (SE) 2,685 6.2 -8.0°
Sets 01:23:41 0° 143° (SE) 3,616 6.8 -7.8°
